Location: Arcusa
(42.3167°N, 0.0833°W)
Time: 18:48:09
(UTC+00:00)

Cosmos 2366 rocket - Pass Details

Date: 25 January 2020
Orbit: 956 x 996 km, 82.9° (Epoch: 24 February)

Event Time Altitude Azimuth Distance (km) Brightness Sun altitude
Rises 05:20:48 0° 353° (N) 3,722 6.9 -22.1°
Reaches altitude 10° 05:23:21 10° 356° (N) 2,771 6.3 -21.6°
Maximum altitude 05:29:44 74° 81° (E) 1,036 4.2 -20.5°
Drops below altitude 10° 05:36:03 10° 167° (SSE) 2,750 6.6 -19.3°
Sets 05:38:34 0° 169° (S) 3,692 7.3 -18.9°
